This demonstration page uses our WeatherBlox Daily Observations layout. Learn more.

Left ArrowRight Arrow

39.08367, -84.50855

Hourly Observations for July 15, 2020

Temp ( °F °C ) Dew Point ( °F °C ) Humidity (%) Winds ( mph kmh ) Pressure ( in mb ) Visibility ( mi km ) Precip ( " mm )
12:53 am 00:53 Clear 68 20 65 18.3 90 90 N N/A 30.06 1018 10 16 N/A
1:53 am 01:53 Clear 70 21.1 65 18.3 84 84 N N/A 30.06 1018 10 16 N/A
2:53 am 02:53 Clear 67 19.4 65 18.3 93 93 N N/A 30.06 1018 9 14 N/A
3:53 am 03:53 Clear 67 19.4 65 18.3 93 93 N N/A 30.05 1018 7 11 N/A
4:53 am 04:53 Clear 67 19.4 65 18.3 93 93 N N/A 30.05 1018 10 16 N/A
5:48 am 05:48 Clear with Mist and Fog 63 17 63 17 100 100 N N/A 30.06 1018 2 3 N/A
5:53 am 05:53 Clear with Mist and Fog 63 17.2 63 17.2 100 100 N N/A 30.05 1018 1 2 N/A
6:01 am 06:01 Clear with Fog 63 17.2 62 16.7 97 97 N N/A 30.06 1018 1 1 N/A
6:13 am 06:13 Mostly Clear with Mist and Fog 64 17.8 63 17.2 96 96 N N/A 30.06 1018 1 2 N/A
6:16 am 06:16 Mostly Cloudy with Fog 64 17.8 63 17.2 96 96 N N/A 30.06 1018 1 1 N/A
6:23 am 06:23 Mostly Cloudy with Fog 64 17.8 63 17.2 96 96 N N/A 30.06 1018 0 0 N/A
6:44 am 06:44 Partly Cloudy with Mist and Fog 66 18.9 65 18.3 96 96 N N/A 30.06 1018 2 2 N/A
6:46 am 06:46 Sunny with Mist and Fog 66 18.9 65 18.3 96 96 N N/A 30.07 1018 4 6 N/A
6:53 am 06:53 Sunny 64 17.8 64 17.8 100 100 N N/A 30.06 1018 8 13 N/A
7:53 am 07:53 Sunny 69 20.6 66 18.9 90 90 N N/A 30.07 1018 8 13 N/A
8:53 am 08:53 Sunny 73 22.8 67 19.4 81 81 undefined N/A 30.08 1019 10 16 N/A
9:53 am 09:53 Sunny 78 25.6 67 19.4 69 69 S 5 7 30.10 1019 10 16 N/A
10:53 am 10:53 Sunny 83 28.3 68 20 61 61 SSW 3 6 30.09 1019 10 16 N/A
11:53 am 11:53 Sunny 85 29.4 65 18.3 51 51 SSE 8 13 30.08 1019 10 16 N/A
12:53 pm 12:53 Sunny 87 30.6 63 17.2 45 45 S 8 13 30.07 1018 10 16 N/A
1:53 pm 13:53 Mostly Sunny 87 30.6 66 18.9 50 50 SSW 8 13 30.07 1018 10 16 N/A
2:53 pm 14:53 Mostly Sunny 88 31.1 64 17.8 45 45 WSW 6 9 30.05 1018 10 16 N/A
3:53 pm 15:53 Mostly Sunny 89 31.7 62 16.7 41 41 N N/A 30.02 1017 10 16 N/A
4:53 pm 16:53 Mostly Sunny 89 31.7 65 18.3 45 45 S 6 9 29.99 1016 10 16 N/A
5:53 pm 17:53 Sunny 86 30 65 18.3 49 49 S 7 11 29.97 1015 10 16 N/A
6:53 pm 18:53 Sunny 88 31.1 66 18.9 48 48 SE 5 7 29.95 1014 10 16 N/A
7:53 pm 19:53 Sunny 83 28.3 67 19.4 59 59 S 3 6 29.94 1014 10 16 N/A
8:53 pm 20:53 Sunny 77 25 69 20.6 77 77 ESE 3 6 29.95 1014 10 16 N/A
9:53 pm 21:53 Clear 75 23.9 69 20.6 82 82 N N/A 29.96 1015 10 16 N/A
10:53 pm 22:53 Clear 75 23.9 69 20.6 82 82 N N/A 29.97 1015 10 16 N/A
11:53 pm 23:53 Clear 74 23.3 70 21.1 88 88 N N/A 29.98 1015 10 16 N/A

Powered by AerisWeather